Tracking 19280 objects as of 15-Nov-2018
HD Live streaming from Space Station
objects crossing your sky now

COSMOS 340

Track COSMOS 340 now!
10-day predictions
COSMOS 340 is classified as:


NORAD ID: 4387
Int'l Code: 1970-036E
Perigee: 1,414.9 km
Apogee: 1,476.0 km
Inclination: 74.0 °
Period: 114.6 minutes
Semi major axis: 7816 km
RCS: 0.7658 m2 (medium)
Launch date: April 25, 1970
Source: Commonwealth of Independent States (former USSR) (CIS)
Launch site: PLESETSK MISSILE AND SPACE COMPLEX (PKMTR)
aabbcc
Your satellite tracking list
Your tracking list is empty




NASA's NSSDC Master Catalog

Two Line Element Set (TLE):
1  4387U 70036E   18318.65674354 -.00000017 +00000-0 -46872-5 0  9991
2  4387 074.0320 039.3097 0039073 145.9061 321.1190 12.56285226226476
Source of the keplerian elements: AFSPC